Time,TemperatureF,DewpointF,PressureIn,WindDirection,WindDirectionDegrees,WindSpeedMPH,WindSpeedGustMPH,Humidity,HourlyPrecipIn,Conditions,Clouds,dailyrainin,SoftwareType,DateUTC
2013-01-10 00:22:00,42.0,10.0,29.84,West,260,13.0,30.0,27,0.00,,,-99.99,,2013-01-10 08:22:00,
2013-01-10 00:32:00,42.0,10.0,29.84,West,260,13.0,30.0,27,0.00,,,-99.99,,2013-01-10 08:32:00,
2013-01-10 00:42:00,42.0,10.0,29.84,West,260,13.0,30.0,27,0.00,,,-99.99,,2013-01-10 08:42:00,
2013-01-10 01:22:00,41.0,9.0,29.82,WSW,250,11.0,21.0,26,0.00,,,-99.99,,2013-01-10 09:22:00,
2013-01-10 01:32:00,41.0,9.0,29.82,WSW,250,11.0,21.0,26,0.00,,,-99.99,,2013-01-10 09:32:00,
2013-01-10 01:42:00,41.0,9.0,29.82,WSW,250,11.0,21.0,26,0.00,,,-99.99,,2013-01-10 09:42:00,
2013-01-10 02:22:00,40.0,8.0,29.83,WSW,240,12.0,24.0,26,0.00,,,-99.99,,2013-01-10 10:22:00,
2013-01-10 02:32:00,40.0,8.0,29.83,WSW,240,12.0,24.0,26,0.00,,,-99.99,,2013-01-10 10:32:00,
2013-01-10 02:42:00,40.0,8.0,29.83,WSW,240,12.0,24.0,26,0.00,,,-99.99,,2013-01-10 10:42:00,
2013-01-10 03:22:00,39.0,10.0,29.83,WSW,240,12.0,27.0,30,0.00,,,-99.99,,2013-01-10 11:22:00,
2013-01-10 03:32:00,39.0,10.0,29.83,WSW,240,12.0,27.0,30,0.00,,,-99.99,,2013-01-10 11:32:00,
2013-01-10 03:42:00,39.0,10.0,29.83,WSW,240,12.0,27.0,30,0.00,,,-99.99,,2013-01-10 11:42:00,
2013-01-10 04:22:00,37.0,11.0,29.85,West,270,9.0,27.0,33,0.00,,,-99.99,,2013-01-10 12:22:00,
2013-01-10 04:32:00,37.0,11.0,29.85,West,270,9.0,27.0,33,0.00,,,-99.99,,2013-01-10 12:32:00,
2013-01-10 04:42:00,37.0,11.0,29.85,West,270,9.0,27.0,33,0.00,,,-99.99,,2013-01-10 12:42:00,
2013-01-10 05:22:00,34.0,15.0,29.87,SW,230,5.0,14.0,46,0.00,,,-99.99,,2013-01-10 13:22:00,
2013-01-10 05:32:00,34.0,15.0,29.87,SW,230,5.0,14.0,46,0.00,,,-99.99,,2013-01-10 13:32:00,
2013-01-10 06:22:00,31.0,25.0,29.88,WSW,250,5.0,17.0,78,0.00,,,-99.99,,2013-01-10 14:22:00,
2013-01-10 06:32:00,31.0,25.0,29.88,WSW,250,5.0,17.0,78,0.00,,,-99.99,,2013-01-10 14:32:00,
2013-01-10 06:43:00,31.0,25.0,29.88,WSW,250,5.0,17.0,78,0.00,,,-99.99,,2013-01-10 14:43:00,
2013-01-10 07:22:00,30.0,23.0,29.87,West,270,9.0,25.0,75,0.00,,,-99.99,,2013-01-10 15:22:00,
2013-01-10 07:32:00,30.0,23.0,29.87,West,270,9.0,25.0,75,0.00,,,-99.99,,2013-01-10 15:32:00,
2013-01-10 07:43:00,30.0,23.0,29.87,West,270,9.0,25.0,75,0.00,,,-99.99,,2013-01-10 15:43:00,
2013-01-10 08:22:00,29.0,22.0,29.85,SW,220,13.0,30.0,75,0.00,,,-99.99,,2013-01-10 16:22:00,
2013-01-10 08:33:00,29.0,22.0,29.85,SW,220,13.0,30.0,75,0.00,,,-99.99,,2013-01-10 16:33:00,
2013-01-10 08:42:00,29.0,22.0,29.85,SW,220,13.0,30.0,75,0.00,,,-99.99,,2013-01-10 16:42:00,
2013-01-10 09:33:00,29.0,22.0,29.84,SW,230,12.0,26.0,76,0.00,,,-99.99,,2013-01-10 17:33:00,
2013-01-10 09:42:00,29.0,22.0,29.84,SW,230,12.0,26.0,76,0.00,,,-99.99,,2013-01-10 17:42:00,
2013-01-10 10:23:00,31.0,24.0,29.79,West,270,12.0,25.0,74,0.00,,,-99.99,,2013-01-10 18:23:00,
2013-01-10 10:33:00,31.0,24.0,29.79,West,270,12.0,25.0,74,0.00,,,-99.99,,2013-01-10 18:33:00,
2013-01-10 10:43:00,31.0,24.0,29.79,West,270,12.0,25.0,74,0.00,,,-99.99,,2013-01-10 18:43:00,
2013-01-10 11:23:00,28.0,21.0,29.79,SW,220,11.0,22.0,76,0.00,,,-99.99,,2013-01-10 19:23:00,
2013-01-10 11:32:00,28.0,21.0,29.79,SW,220,11.0,22.0,76,0.00,,,-99.99,,2013-01-10 19:32:00,
2013-01-10 11:43:00,28.0,21.0,29.79,SW,220,11.0,22.0,76,0.00,,,-99.99,,2013-01-10 19:43:00,
2013-01-10 12:23:00,27.0,21.0,29.77,WSW,250,10.0,22.0,77,0.00,,,-99.99,,2013-01-10 20:23:00,
2013-01-10 12:32:00,27.0,21.0,29.77,WSW,250,10.0,22.0,77,0.00,,,-99.99,,2013-01-10 20:32:00,
2013-01-10 12:42:00,27.0,21.0,29.77,WSW,250,10.0,22.0,77,0.00,,,-99.99,,2013-01-10 20:42:00,
2013-01-10 13:23:00,26.0,21.0,29.77,West,270,5.0,18.0,80,0.00,,,-99.99,,2013-01-10 21:23:00,
2013-01-10 13:33:00,26.0,21.0,29.77,West,270,5.0,18.0,80,0.00,,,-99.99,,2013-01-10 21:33:00,
2013-01-10 13:42:00,26.0,21.0,29.77,West,270,5.0,18.0,80,0.00,,,-99.99,,2013-01-10 21:42:00,
2013-01-10 14:25:00,24.0,18.0,29.81,West,270,10.0,20.0,78,0.00,,,-99.99,,2013-01-10 22:25:00,
2013-01-10 14:32:00,24.0,18.0,29.81,West,270,10.0,20.0,78,0.00,,,-99.99,,2013-01-10 22:32:00,
2013-01-10 14:43:00,24.0,18.0,29.81,West,270,10.0,20.0,78,0.00,,,-99.99,,2013-01-10 22:43:00,
2013-01-10 15:22:00,19.0,14.0,29.89,NW,310,6.0,13.0,82,0.00,,,-99.99,,2013-01-10 23:22:00,
2013-01-10 15:33:00,19.0,14.0,29.89,NW,310,6.0,13.0,82,0.00,,,-99.99,,2013-01-10 23:33:00,
2013-01-10 15:42:00,19.0,14.0,29.89,NW,310,6.0,13.0,82,0.00,,,-99.99,,2013-01-10 23:42:00,
2013-01-10 16:23:00,18.0,13.0,29.94,WNW,290,5.0,13.0,80,0.00,,,-99.99,,2013-01-11 00:23:00,
2013-01-10 16:33:00,18.0,13.0,29.94,WNW,290,5.0,13.0,80,0.00,,,-99.99,,2013-01-11 00:33:00,
2013-01-10 16:42:00,18.0,13.0,29.94,WNW,290,5.0,13.0,80,0.00,,,-99.99,,2013-01-11 00:42:00,
2013-01-10 17:22:00,18.0,12.0,29.98,NW,320,5.0,17.0,76,0.00,,,-99.99,,2013-01-11 01:22:00,
2013-01-10 17:33:00,18.0,12.0,29.98,NW,320,5.0,17.0,76,0.00,,,-99.99,,2013-01-11 01:33:00,
2013-01-10 17:42:00,18.0,12.0,29.98,NW,320,5.0,17.0,76,0.00,,,-99.99,,2013-01-11 01:42:00,
2013-01-10 18:23:00,16.0,9.0,30.01,West,260,3.0,8.0,73,0.00,,,-99.99,,2013-01-11 02:23:00,
2013-01-10 18:33:00,16.0,9.0,30.01,West,260,3.0,8.0,73,0.00,,,-99.99,,2013-01-11 02:33:00,
2013-01-10 18:43:00,16.0,9.0,30.01,West,260,3.0,8.0,73,0.00,,,-99.99,,2013-01-11 02:43:00,
2013-01-10 20:22:00,15.0,7.0,30.06,West,280,4.0,17.0,71,0.00,,,-99.99,,2013-01-11 04:22:00,
2013-01-10 20:32:00,15.0,7.0,30.06,West,280,4.0,17.0,71,0.00,,,-99.99,,2013-01-11 04:32:00,
2013-01-10 20:42:00,15.0,7.0,30.06,West,280,4.0,17.0,71,0.00,,,-99.99,,2013-01-11 04:42:00,
2013-01-10 21:22:00,15.0,7.0,30.05,WNW,290,5.0,13.0,71,0.00,,,-99.99,,2013-01-11 05:22:00,
2013-01-10 21:33:00,15.0,7.0,30.05,WNW,290,5.0,13.0,71,0.00,,,-99.99,,2013-01-11 05:33:00,
2013-01-10 21:42:00,15.0,7.0,30.05,WNW,290,5.0,13.0,71,0.00,,,-99.99,,2013-01-11 05:42:00,
2013-01-10 22:22:00,15.0,9.0,30.07,WNW,290,7.0,20.0,78,0.00,,,-99.99,,2013-01-11 06:22:00,
2013-01-10 22:32:00,15.0,9.0,30.07,WNW,290,7.0,20.0,78,0.00,,,-99.99,,2013-01-11 06:32:00,
2013-01-10 22:42:00,15.0,9.0,30.07,WNW,290,7.0,20.0,78,0.00,,,-99.99,,2013-01-11 06:42:00,